Blattenbach Aussen Messungen

Zurück zum Überblick

Zeitpunkt Temperatur Temperatur Kabelsensor Luftfeuchte
15.06.2019 23:54:07 13,7 C 23,7 C 82,0%
15.06.2019 23:47:05 13,6 C 23,7 C 82,0%
15.06.2019 23:40:06 13,6 C 23,8 C 82,0%
15.06.2019 23:33:06 13,6 C 23,8 C 82,0%
15.06.2019 23:26:06 13,8 C 23,8 C 81,0%
15.06.2019 23:19:05 14,0 C 23,9 C 81,0%
15.06.2019 23:12:07 13,9 C 23,9 C 81,0%
15.06.2019 23:05:04 13,9 C 23,9 C 80,0%
15.06.2019 22:58:06 14,1 C 23,9 C 80,0%
15.06.2019 22:51:03 14,2 C 24,0 C 80,0%
15.06.2019 22:44:04 14,2 C 24,0 C 79,0%
15.06.2019 22:37:03 14,1 C 24,1 C 80,0%
15.06.2019 22:30:05 14,2 C 24,1 C 80,0%
15.06.2019 22:23:07 14,3 C 24,2 C 79,0%
15.06.2019 22:16:06 14,4 C 24,2 C 79,0%
15.06.2019 22:09:06 14,7 C 24,3 C 79,0%
15.06.2019 22:02:05 14,7 C 24,3 C 79,0%
15.06.2019 21:55:05 14,7 C 24,3 C 78,0%
15.06.2019 21:48:07 15,0 C 24,4 C 77,0%
15.06.2019 21:41:06 15,0 C 24,4 C 78,0%
15.06.2019 21:34:07 14,8 C 24,5 C 78,0%
15.06.2019 21:27:06 14,8 C 24,5 C 78,0%
15.06.2019 21:20:05 15,0 C 24,6 C 77,0%
15.06.2019 21:13:05 15,6 C 24,7 C 75,0%
15.06.2019 21:06:06 15,7 C 24,7 C 75,0%
15.06.2019 20:59:04 15,7 C 24,8 C 75,0%
15.06.2019 20:52:08 16,2 C 24,8 C 74,0%
15.06.2019 20:45:05 16,7 C 24,9 C 73,0%
15.06.2019 20:38:05 18,1 C 25,0 C 70,0%
15.06.2019 20:31:05 19,0 C 25,0 C 69,0%
15.06.2019 20:24:06 19,6 C 25,1 C 67,0%
15.06.2019 20:17:06 19,9 C 25,1 C 66,0%
15.06.2019 20:10:05 20,1 C 25,0 C 65,0%
15.06.2019 20:03:06 20,1 C 25,0 C 63,0%
15.06.2019 19:56:07 20,1 C 25,0 C 64,0%
15.06.2019 19:49:07 20,1 C 25,0 C 63,0%
15.06.2019 19:42:04 20,2 C 25,0 C 63,0%
15.06.2019 19:35:06 20,4 C 25,0 C 62,0%
15.06.2019 19:28:07 20,5 C 25,0 C 62,0%
15.06.2019 19:21:06 20,7 C 25,1 C 61,0%
15.06.2019 19:14:05 21,1 C 25,1 C 60,0%
15.06.2019 19:07:04 21,6 C 25,1 C 58,0%
15.06.2019 19:00:05 21,7 C 25,1 C 57,0%
15.06.2019 18:53:04 21,8 C 25,1 C 58,0%
15.06.2019 18:46:06 22,1 C 25,1 C 57,0%
15.06.2019 18:39:07 22,1 C 25,1 C 57,0%
15.06.2019 18:32:04 22,2 C 25,1 C 56,0%
15.06.2019 18:25:04 22,4 C 25,1 C 57,0%
15.06.2019 18:18:06 22,5 C 25,1 C 57,0%
15.06.2019 18:11:06 22,4 C 25,1 C 57,0%
15.06.2019 18:04:05 22,6 C 25,1 C 56,0%
15.06.2019 17:57:04 22,7 C 25,1 C 55,0%
15.06.2019 17:50:05 22,9 C 25,1 C 55,0%
15.06.2019 17:43:07 23,1 C 25,1 C 55,0%
15.06.2019 17:36:06 23,6 C 25,1 C 55,0%
15.06.2019 17:29:05 24,1 C 25,1 C 54,0%
15.06.2019 17:22:08 24,2 C 25,1 C 54,0%
15.06.2019 17:15:05 24,7 C 25,1 C 54,0%
15.06.2019 17:08:06 25,6 C 25,1 C 54,0%
15.06.2019 17:01:06 25,9 C 25,1 C 54,0%
15.06.2019 16:54:04 25,7 C 25,1 C 53,0%
15.06.2019 16:47:04 26,1 C 25,0 C 53,0%
15.06.2019 16:40:05 25,5 C 25,0 C 54,0%
15.06.2019 16:33:07 24,9 C 25,0 C 54,0%
15.06.2019 16:26:06 24,8 C 24,9 C 55,0%
15.06.2019 16:19:06 24,5 C 24,9 C 55,0%
15.06.2019 16:12:04 24,2 C 24,8 C 56,0%
15.06.2019 16:05:05 24,1 C 24,8 C 56,0%
15.06.2019 15:58:04 24,3 C 24,7 C 55,0%
15.06.2019 15:51:06 24,4 C 24,7 C 55,0%
15.06.2019 15:44:08 24,7 C 24,6 C 55,0%
15.06.2019 15:37:08 24,7 C 24,5 C 55,0%
15.06.2019 15:30:05 24,4 C 24,5 C 55,0%
15.06.2019 15:23:07 24,2 C 24,4 C 54,0%
15.06.2019 15:16:07 24,6 C 24,4 C 55,0%
15.06.2019 15:09:04 24,2 C 24,3 C 55,0%
15.06.2019 15:02:04 24,4 C 24,2 C 55,0%
15.06.2019 14:55:05 24,2 C 24,2 C 55,0%
15.06.2019 14:48:04 24,1 C 24,1 C 55,0%
15.06.2019 14:41:06 24,0 C 24,1 C 56,0%
15.06.2019 14:34:07 24,3 C 24,0 C 55,0%
15.06.2019 14:27:06 24,6 C 23,9 C 55,0%
15.06.2019 14:20:06 24,1 C 23,9 C 56,0%
15.06.2019 14:13:05 23,7 C 23,8 C 56,0%
15.06.2019 14:06:06 23,6 C 23,8 C 56,0%
15.06.2019 13:59:05 23,6 C 23,8 C 56,0%
15.06.2019 13:52:04 23,9 C 23,7 C 56,0%
15.06.2019 13:45:06 23,9 C 23,7 C 56,0%
15.06.2019 13:38:05 23,8 C 23,7 C 57,0%
15.06.2019 13:31:07 23,6 C 23,6 C 57,0%
15.06.2019 13:24:07 23,8 C 23,6 C 57,0%
15.06.2019 13:17:06 23,4 C 23,5 C 58,0%
15.06.2019 13:10:05 23,1 C 23,5 C 57,0%
15.06.2019 13:03:06 23,1 C 23,5 C 57,0%
15.06.2019 12:56:05 23,1 C 23,4 C 57,0%
15.06.2019 12:49:07 23,0 C 23,4 C 57,0%
15.06.2019 12:42:05 23,3 C 23,4 C 57,0%
15.06.2019 12:35:04 23,2 C 23,4 C 57,0%
15.06.2019 12:28:08 23,6 C 23,3 C 58,0%
15.06.2019 12:21:06 23,2 C 23,2 C 58,0%
15.06.2019 12:14:07 22,6 C 23,2 C 58,0%
15.06.2019 12:07:07 22,7 C 23,2 C 58,0%
15.06.2019 12:00:06 23,0 C 23,2 C 57,0%
15.06.2019 11:53:06 22,6 C 23,1 C 58,0%
15.06.2019 11:46:06 22,9 C 23,1 C 57,0%
15.06.2019 11:39:05 23,4 C 23,1 C 57,0%
15.06.2019 11:32:08 23,1 C 23,0 C 57,0%
15.06.2019 11:25:06 22,9 C 23,0 C 58,0%
15.06.2019 11:18:06 23,0 C 23,0 C 57,0%
15.06.2019 11:11:07 23,0 C 22,9 C 57,0%
15.06.2019 11:04:04 23,1 C 22,9 C 57,0%
15.06.2019 10:57:05 22,9 C 22,9 C 57,0%
15.06.2019 10:50:05 22,5 C 22,8 C 58,0%
15.06.2019 10:43:05 22,4 C 22,8 C 58,0%
15.06.2019 10:36:06 22,5 C 22,7 C 58,0%
15.06.2019 10:29:06 22,1 C 22,7 C 58,0%
15.06.2019 10:22:06 21,9 C 22,7 C 58,0%
15.06.2019 10:15:06 21,8 C 22,6 C 58,0%
15.06.2019 10:08:05 21,8 C 22,6 C 58,0%
15.06.2019 10:00:50 22,0 C 22,6 C 57,0%
15.06.2019 09:53:50 22,1 C 22,6 C 58,0%
15.06.2019 09:46:49 21,9 C 22,5 C 58,0%
15.06.2019 09:39:49 22,3 C 22,5 C 58,0%
15.06.2019 09:32:53 22,1 C 22,5 C 58,0%
15.06.2019 09:25:49 22,1 C 22,4 C 57,0%
15.06.2019 09:18:52 22,2 C 22,4 C 56,0%
15.06.2019 09:11:52 22,9 C 22,4 C 56,0%
15.06.2019 09:04:52 23,0 C 22,4 C 56,0%
15.06.2019 08:57:51 23,2 C 22,3 C 55,0%
15.06.2019 08:50:49 23,6 C 22,3 C 54,0%
15.06.2019 08:43:51 25,2 C 22,3 C 51,0%
15.06.2019 08:36:50 27,3 C 22,2 C 48,0%
15.06.2019 08:29:50 29,6 C 22,2 C 48,0%
15.06.2019 08:22:51 29,8 C 22,2 C 48,0%
15.06.2019 08:15:51 29,6 C 22,2 C 50,0%
15.06.2019 08:08:51 26,4 C 22,2 C 56,0%
15.06.2019 08:01:50 23,4 C 22,2 C 60,0%
15.06.2019 07:54:51 20,8 C 22,3 C 65,0%
15.06.2019 07:47:52 21,4 C 22,3 C 65,0%
15.06.2019 07:40:53 19,3 C 22,3 C 70,0%
15.06.2019 07:33:53 18,5 C 22,3 C 71,0%
15.06.2019 07:26:51 18,6 C 22,3 C 72,0%
15.06.2019 07:19:50 18,3 C 22,3 C 72,0%
15.06.2019 07:12:49 17,9 C 22,3 C 73,0%
15.06.2019 07:05:50 17,6 C 22,3 C 73,0%
15.06.2019 06:58:51 17,6 C 22,4 C 72,0%
15.06.2019 06:51:50 17,7 C 22,4 C 72,0%
15.06.2019 06:44:52 17,4 C 22,4 C 72,0%
15.06.2019 06:37:52 17,3 C 22,4 C 72,0%
15.06.2019 06:30:51 17,3 C 22,4 C 71,0%
15.06.2019 06:23:51 17,4 C 22,4 C 71,0%
15.06.2019 06:16:51 17,5 C 22,4 C 70,0%
15.06.2019 06:09:51 17,6 C 22,4 C 69,0%
15.06.2019 06:02:52 17,7 C 22,5 C 69,0%
15.06.2019 05:55:51 17,8 C 22,5 C 69,0%
15.06.2019 05:48:50 17,9 C 22,5 C 68,0%
15.06.2019 05:41:51 18,0 C 22,5 C 68,0%
15.06.2019 05:34:48 18,3 C 22,5 C 67,0%
15.06.2019 05:27:53 18,5 C 22,6 C 66,0%
15.06.2019 05:20:50 19,0 C 22,6 C 64,0%
15.06.2019 05:13:50 19,3 C 22,6 C 63,0%
15.06.2019 05:06:52 19,5 C 22,6 C 62,0%
15.06.2019 04:59:51 19,7 C 22,6 C 62,0%
15.06.2019 04:52:52 19,9 C 22,6 C 61,0%
15.06.2019 04:45:53 20,0 C 22,7 C 60,0%
15.06.2019 04:38:50 20,1 C 22,7 C 59,0%
15.06.2019 04:31:51 20,2 C 22,7 C 58,0%
15.06.2019 04:24:51 20,2 C 22,7 C 57,0%
15.06.2019 04:17:50 20,2 C 22,7 C 57,0%
15.06.2019 04:10:53 20,2 C 22,7 C 57,0%
15.06.2019 04:03:50 20,1 C 22,8 C 58,0%
15.06.2019 03:56:51 19,6 C 22,8 C 60,0%
15.06.2019 03:49:49 19,5 C 22,8 C 60,0%
15.06.2019 03:42:49 19,5 C 22,8 C 60,0%
15.06.2019 03:35:51 19,6 C 22,8 C 60,0%
15.06.2019 03:28:50 19,8 C 22,8 C 59,0%
15.06.2019 03:21:52 19,9 C 22,8 C 58,0%
15.06.2019 03:14:52 19,5 C 22,8 C 59,0%
15.06.2019 03:07:51 19,1 C 22,8 C 61,0%
15.06.2019 03:00:53 19,2 C 22,9 C 60,0%
15.06.2019 02:53:49 19,4 C 22,9 C 60,0%
15.06.2019 02:46:52 19,4 C 22,9 C 59,0%
15.06.2019 02:39:51 19,4 C 22,9 C 59,0%
15.06.2019 02:32:54 19,5 C 22,9 C 58,0%
15.06.2019 02:25:49 19,6 C 22,9 C 58,0%
15.06.2019 02:18:49 19,6 C 23,0 C 58,0%
15.06.2019 02:11:50 19,9 C 23,0 C 58,0%
15.06.2019 02:04:52 20,1 C 23,0 C 57,0%
15.06.2019 01:57:52 20,4 C 23,0 C 55,0%
15.06.2019 01:50:51 20,2 C 23,0 C 56,0%
15.06.2019 01:43:52 20,0 C 23,0 C 57,0%
15.06.2019 01:36:51 20,3 C 23,1 C 57,0%
15.06.2019 01:29:52 20,7 C 23,1 C 55,0%
15.06.2019 01:22:49 20,6 C 23,1 C 55,0%
15.06.2019 01:15:51 21,0 C 23,1 C 53,0%
15.06.2019 01:08:50 21,1 C 23,1 C 53,0%
15.06.2019 01:01:49 21,2 C 23,1 C 52,0%
15.06.2019 00:54:50 21,1 C 23,1 C 52,0%
15.06.2019 00:47:48 21,2 C 23,1 C 52,0%
15.06.2019 00:40:50 21,2 C 23,1 C 52,0%
15.06.2019 00:33:49 21,2 C 23,2 C 52,0%
15.06.2019 00:26:51 21,2 C 23,2 C 52,0%
15.06.2019 00:19:51 21,1 C 23,2 C 52,0%
15.06.2019 00:12:52 21,2 C 23,2 C 53,0%
15.06.2019 00:05:49 21,6 C 23,2 C 51,0%